Hourly Data Report for December 23, 2017

VICTORIA UNIVERSITY CS
BRITISH COLUMBIA

48°27'25.200" N
123°18'16.600" W
60.10 m
1018598
71783
WYJ

Download Data

Hourly Data (December 2017)
Hourly Data Report for December 23, 2017
TIME
LST
Temp Definition
°C
Dew Point Definition
°C
Rel Hum Definition
%
Precip. Amount Definition
mm

Wind Dir Definition
10's deg

Wind Spd Definition
km/h
Visibility Definition
km
Stn Press Definition
kPa
Hmdx Definition


Wind Chill Definition


Weather Definition


00:00 1.1 -9.9 43 0.0 4 15   102.20     LegendNANA
01:00 1.0 -9.9 44 0.0 3 15   102.27     LegendNANA
02:00 0.6 -10.1 44 0.0 3 14   102.33     LegendNANA
03:00 0.4 -10.9 43 0.0 3 16   102.35     LegendNANA
04:00 0.0 -10.5 45 0.0 4 13   102.35   -4 LegendNANA
05:00 -0.3 -10.2 47 0.0 5 10   102.35   -4 LegendNANA
06:00 -0.8 -10.3 48 0.0 3 5   102.40   -2 LegendNANA
07:00 0.1 -11.5 41 0.0 2 13   102.40     LegendNANA
08:00 -0.5 -10.0 49 0.0 1 10   102.43   -4 LegendNANA
09:00 -0.4 -9.7 50 0.0 4 3   102.54   -1 LegendNANA
10:00 1.0 -10.6 42 0.0 2 7   102.65     LegendNANA
11:00 2.1 -11.4 36 0.0 3 14   102.65     LegendNANA
12:00 2.0 -9.5 42 0.0 4 12   102.66     LegendNANA
13:00 1.9 -11.0 38 0.0 3 14   102.59     LegendNANA
14:00 1.8 -10.3 40 0.0 3 14   102.59     LegendNANA
15:00 1.7 -9.9 42 0.0 2 9   102.58     LegendNANA
16:00 1.3 -9.5 44 0.0 6 5   102.56     LegendNANA
17:00 1.3 -8.4 48 0.0 2 9   102.53     LegendNANA
18:00 0.8 -9.1 47 0.0 3 9   102.46     LegendNANA
19:00 -0.7 -7.2 61 0.0 2 4   102.45   -2 LegendNANA
20:00 0.2 -7.2 57 0.0 2 6   102.40     LegendNANA
21:00 -0.7 -7.3 61 0.0 1 3   102.37   -2 LegendNANA
22:00 0.1 -7.2 58 0.0 1 5   102.34     LegendNANA
23:00 0.4 -6.8 59 0.0 1 8   102.34     LegendNANA

Notes on Data Quality.

Legend

  • E = Estimated
  • M = Missing
  • NA = Not Available*
  • [empty] = Indicates an unobserved value
Date modified: